User: anonymous   Login
Location: Hepcat Sky Observatory
(29.9800°N, 95.6500°W)
Time: 14:47:18
(UTC-06:00)
Language:

ALOS - Orbit

View from above orbital plane
View from above orbital plane
View from above satellite
View from above satellite

Ground track
Ground track

The orbit data is extracted from the following two-line orbital elements,

1 28931U 06002A   15059.23858305  .00000787  00000-0  16704-3 0  9998
2 28931 097.9486 112.9298 0002336 092.7175 267.4294 14.61696808484723
Epoch (UTC): 28 February 2015 05:43:33
Eccentricity: 0.0002336
inclination: 97.9486°
perigee height: 686 km
apogee height: 689 km
right ascension of ascending node: 112.9298°
argument of perigee: 92.7175°
revolutions per day: 14.61696808
mean anomaly at epoch: 267.4294°
orbit number at epoch: 48472

The dashed part of the orbit path shows where the satellite is in the earth's shadow,  

DLR